30/04/2024 04:15:00,0.859
30/04/2024 04:30:00,0.86
30/04/2024 04:45:00,0.859
30/04/2024 05:00:00,0.857
30/04/2024 05:15:00,0.855
30/04/2024 05:30:00,0.855
30/04/2024 05:45:00,0.856
30/04/2024 06:00:00,0.858
30/04/2024 06:15:00,0.86
30/04/2024 06:30:00,0.86
30/04/2024 06:45:00,0.855
30/04/2024 07:00:00,0.847
30/04/2024 07:15:00,0.836
30/04/2024 07:30:00,0.825
30/04/2024 07:45:00,0.816
30/04/2024 08:00:00,0.807
30/04/2024 08:15:00,0.802
30/04/2024 08:30:00,0.796
30/04/2024 08:45:00,0.793
30/04/2024 09:00:00,0.787
30/04/2024 09:15:00,0.784
30/04/2024 09:30:00,0.772
30/04/2024 09:45:00,0.749
30/04/2024 10:00:00,0.719
30/04/2024 10:15:00,0.692
30/04/2024 10:30:00,0.675
30/04/2024 10:45:00,0.675
30/04/2024 11:00:00,0.694
30/04/2024 11:15:00,0.714
30/04/2024 11:30:00,0.727
30/04/2024 11:45:00,0.732
30/04/2024 12:00:00,0.736
30/04/2024 12:15:00,0.737
30/04/2024 12:30:00,0.733
30/04/2024 12:45:00,0.73
30/04/2024 13:00:00,0.73
30/04/2024 13:15:00,0.727
30/04/2024 13:30:00,0.725
30/04/2024 13:45:00,0.719
30/04/2024 14:00:00,0.718
30/04/2024 14:15:00,0.715
30/04/2024 14:30:00,0.712
30/04/2024 14:45:00,0.709
30/04/2024 15:00:00,0.708
30/04/2024 15:15:00,0.707
30/04/2024 15:30:00,0.707
30/04/2024 15:45:00,0.705
30/04/2024 16:00:00,0.704
30/04/2024 16:15:00,0.703
30/04/2024 16:30:00,0.7
30/04/2024 16:45:00,0.698
30/04/2024 17:00:00,0.697
30/04/2024 17:15:00,0.697
30/04/2024 17:30:00,0.695
30/04/2024 17:45:00,0.694
30/04/2024 18:00:00,0.693
30/04/2024 18:15:00,0.692
30/04/2024 18:30:00,0.69
30/04/2024 18:45:00,0.69
30/04/2024 19:00:00,0.69
30/04/2024 19:15:00,0.689
30/04/2024 19:30:00,0.689
30/04/2024 19:45:00,0.687
30/04/2024 20:00:00,0.686
30/04/2024 20:15:00,0.684
30/04/2024 20:30:00,0.682
30/04/2024 20:45:00,0.681
30/04/2024 21:00:00,0.681
30/04/2024 21:15:00,0.681
30/04/2024 21:30:00,0.681
30/04/2024 21:45:00,0.681
30/04/2024 22:00:00,0.679
30/04/2024 22:15:00,0.679
30/04/2024 22:30:00,0.678
30/04/2024 22:45:00,0.677
30/04/2024 23:00:00,0.676
30/04/2024 23:15:00,0.676
30/04/2024 23:30:00,0.674
30/04/2024 23:45:00,0.674
01/05/2024 00:00:00,0.673
01/05/2024 00:15:00,0.673
01/05/2024 00:30:00,0.673
01/05/2024 00:45:00,0.673
01/05/2024 01:00:00,0.673
01/05/2024 01:15:00,0.673
01/05/2024 01:30:00,0.672
01/05/2024 01:45:00,0.671
01/05/2024 02:00:00,0.671
01/05/2024 02:15:00,0.671
01/05/2024 02:30:00,0.668
01/05/2024 02:45:00,0.667
01/05/2024 03:00:00,0.666
01/05/2024 03:15:00,0.666
01/05/2024 03:30:00,0.664
01/05/2024 03:45:00,0.664
01/05/2024 04:00:00,0.664
01/05/2024 04:15:00,0.663
01/05/2024 04:30:00,0.662
01/05/2024 04:45:00,0.661
01/05/2024 05:00:00,0.66
01/05/2024 05:15:00,0.657
01/05/2024 05:30:00,0.656
01/05/2024 05:45:00,0.656
01/05/2024 06:00:00,0.654
01/05/2024 06:15:00,0.653
01/05/2024 06:30:00,0.653
01/05/2024 06:45:00,0.653
01/05/2024 07:00:00,0.652
01/05/2024 07:15:00,0.651
01/05/2024 07:30:00,0.651
01/05/2024 07:45:00,0.65
01/05/2024 08:00:00,0.649
01/05/2024 08:15:00,0.648
01/05/2024 08:30:00,0.648
01/05/2024 08:45:00,0.646
01/05/2024 09:00:00,0.646
01/05/2024 09:15:00,0.644
01/05/2024 09:30:00,0.643
01/05/2024 09:45:00,0.641
01/05/2024 10:00:00,0.639
01/05/2024 10:15:00,0.638
01/05/2024 10:30:00,0.636
01/05/2024 10:45:00,0.634
01/05/2024 11:00:00,0.634
01/05/2024 11:15:00,0.633
01/05/2024 11:30:00,0.633
01/05/2024 11:45:00,0.633
01/05/2024 12:00:00,0.633
01/05/2024 12:15:00,0.633
01/05/2024 12:30:00,0.633
01/05/2024 12:45:00,0.633
01/05/2024 13:00:00,0.632
01/05/2024 13:15:00,0.632
01/05/2024 13:30:00,0.632
01/05/2024 13:45:00,0.632
01/05/2024 14:00:00,0.629
01/05/2024 14:15:00,0.628
01/05/2024 14:30:00,0.625
01/05/2024 14:45:00,0.624
01/05/2024 15:00:00,0.624
01/05/2024 15:15:00,0.623
01/05/2024 15:30:00,0.624
01/05/2024 15:45:00,0.624
01/05/2024 16:00:00,0.623
01/05/2024 16:15:00,0.623
01/05/2024 16:30:00,0.622
01/05/2024 16:45:00,0.621
01/05/2024 17:00:00,0.621
01/05/2024 17:15:00,0.621
01/05/2024 17:30:00,0.62
01/05/2024 17:45:00,0.62
01/05/2024 18:00:00,0.619
01/05/2024 18:15:00,0.619
01/05/2024 18:30:00,0.618
01/05/2024 18:45:00,0.618
01/05/2024 19:00:00,0.616
01/05/2024 19:15:00,0.616
01/05/2024 19:30:00,0.616
01/05/2024 19:45:00,0.614
01/05/2024 20:00:00,0.613
01/05/2024 20:15:00,0.611
01/05/2024 20:30:00,0.61
01/05/2024 20:45:00,0.61
01/05/2024 21:00:00,0.609
01/05/2024 21:15:00,0.609
01/05/2024 21:30:00,0.609
01/05/2024 21:45:00,0.609
01/05/2024 22:00:00,0.609
01/05/2024 22:15:00,0.609
01/05/2024 22:30:00,0.609
01/05/2024 22:45:00,0.607
01/05/2024 23:00:00,0.606
01/05/2024 23:15:00,0.605
01/05/2024 23:30:00,0.602
01/05/2024 23:45:00,0.601
02/05/2024 00:00:00,0.601
02/05/2024 00:15:00,0.601
02/05/2024 00:30:00,0.6
02/05/2024 00:45:00,0.601
02/05/2024 01:00:00,0.601
02/05/2024 01:15:00,0.601
02/05/2024 01:30:00,0.6
02/05/2024 01:45:00,0.6
02/05/2024 02:00:00,0.6
02/05/2024 02:15:00,0.6
02/05/2024 02:30:00,0.6
02/05/2024 02:45:00,0.6
02/05/2024 03:00:00,0.6
02/05/2024 03:15:00,0.599
02/05/2024 03:30:00,0.599
02/05/2024 03:45:00,0.599
02/05/2024 04:00:00,0.599
02/05/2024 04:15:00,0.599
02/05/2024 04:30:00,0.598
02/05/2024 04:45:00,0.598
02/05/2024 05:00:00,0.597
02/05/2024 05:15:00,0.597
02/05/2024 05:30:00,0.597
02/05/2024 05:45:00,0.597
02/05/2024 06:00:00,0.596
02/05/2024 06:15:00,0.596
02/05/2024 06:30:00,0.596
02/05/2024 06:45:00,0.596
02/05/2024 07:00:00,0.596
02/05/2024 07:15:00,0.595
02/05/2024 07:30:00,0.595
02/05/2024 07:45:00,0.595
02/05/2024 08:00:00,0.595
02/05/2024 08:15:00,0.595
02/05/2024 08:30:00,0.595
02/05/2024 08:45:00,0.595
02/05/2024 09:00:00,0.595
02/05/2024 09:15:00,0.595
02/05/2024 09:30:00,0.594
02/05/2024 09:45:00,0.592
02/05/2024 10:00:00,0.591
02/05/2024 10:15:00,0.591
02/05/2024 10:30:00,0.591
02/05/2024 10:45:00,0.59
02/05/2024 11:00:00,0.59
02/05/2024 11:15:00,0.59
02/05/2024 11:30:00,0.591
02/05/2024 11:45:00,0.592
02/05/2024 12:00:00,0.594
02/05/2024 12:15:00,0.595
02/05/2024 12:30:00,0.594
02/05/2024 12:45:00,0.595
02/05/2024 13:00:00,0.595
02/05/2024 13:15:00,0.595
02/05/2024 13:30:00,0.592
02/05/2024 13:45:00,0.592
02/05/2024 14:00:00,0.591
02/05/2024 14:15:00,0.59
02/05/2024 14:30:00,0.59
02/05/2024 14:45:00,0.59
02/05/2024 15:00:00,0.591
02/05/2024 15:15:00,0.591
02/05/2024 15:30:00,0.591
02/05/2024 15:45:00,0.592
02/05/2024 16:00:00,0.595
02/05/2024 16:15:00,0.595
02/05/2024 16:30:00,0.595
02/05/2024 16:45:00,0.594
02/05/2024 17:00:00,0.595
02/05/2024 17:15:00,0.595
02/05/2024 17:30:00,0.594
02/05/2024 17:45:00,0.592
02/05/2024 18:00:00,0.591
02/05/2024 18:15:00,0.591
02/05/2024 18:30:00,0.591
02/05/2024 18:45:00,0.591
02/05/2024 19:00:00,0.59
02/05/2024 19:15:00,0.59
02/05/2024 19:30:00,0.59
02/05/2024 19:45:00,0.588
02/05/2024 20:00:00,0.588
02/05/2024 20:15:00,0.587
02/05/2024 20:30:00,0.586
02/05/2024 20:45:00,0.585
02/05/2024 21:00:00,0.585
02/05/2024 21:15:00,0.585
02/05/2024 21:30:00,0.585
02/05/2024 21:45:00,0.586
02/05/2024 22:00:00,0.588
02/05/2024 22:15:00,0.588
02/05/2024 22:30:00,0.588
02/05/2024 22:45:00,0.587
02/05/2024 23:00:00,0.585
02/05/2024 23:15:00,0.585
02/05/2024 23:30:00,0.584
02/05/2024 23:45:00,0.583
03/05/2024 00:00:00,0.58
03/05/2024 00:15:00,0.58
03/05/2024 00:30:00,0.581
03/05/2024 00:45:00,0.581
03/05/2024 01:00:00,0.581
03/05/2024 01:15:00,0.581
03/05/2024 01:30:00,0.581
03/05/2024 01:45:00,0.581
03/05/2024 02:00:00,0.581
03/05/2024 02:15:00,0.581
03/05/2024 02:30:00,0.581
03/05/2024 02:45:00,0.581
03/05/2024 03:00:00,0.581
03/05/2024 03:15:00,0.58
03/05/2024 03:30:00,0.579
03/05/2024 03:45:00,0.579
03/05/2024 04:00:00,0.579
03/05/2024 04:15:00,0.579
03/05/2024 04:30:00,0.579
03/05/2024 04:45:00,0.579
03/05/2024 05:00:00,0.579
03/05/2024 05:15:00,0.579
03/05/2024 05:30:00,0.579
03/05/2024 05:45:00,0.578
03/05/2024 06:00:00,0.578
03/05/2024 06:15:00,0.578
03/05/2024 06:30:00,0.577
03/05/2024 06:45:00,0.577
03/05/2024 07:00:00,0.578
03/05/2024 07:15:00,0.578
03/05/2024 07:30:00,0.578
03/05/2024 07:45:00,0.578
03/05/2024 08:00:00,0.578
03/05/2024 08:15:00,0.578
03/05/2024 08:30:00,0.578
03/05/2024 08:45:00,0.578
03/05/2024 09:00:00,0.578
03/05/2024 09:15:00,0.578
03/05/2024 09:30:00,0.578
03/05/2024 09:45:00,0.578
03/05/2024 10:00:00,0.577
03/05/2024 10:15:00,0.576
03/05/2024 10:30:00,0.575
03/05/2024 10:45:00,0.575
03/05/2024 11:00:00,0.575
03/05/2024 11:15:00,0.575
03/05/2024 11:30:00,0.576
03/05/2024 11:45:00,0.576
03/05/2024 12:00:00,0.576
03/05/2024 12:15:00,0.577
03/05/2024 12:30:00,0.577
03/05/2024 12:45:00,0.578
03/05/2024 13:00:00,0.578
03/05/2024 13:15:00,0.578
03/05/2024 13:30:00,0.578
03/05/2024 13:45:00,0.578
03/05/2024 14:00:00,0.576
03/05/2024 14:15:00,0.576
03/05/2024 14:30:00,0.575
03/05/2024 14:45:00,0.575
03/05/2024 15:00:00,0.574
03/05/2024 15:15:00,0.574
03/05/2024 15:30:00,0.575
03/05/2024 15:45:00,0.576
03/05/2024 16:00:00,0.577
03/05/2024 16:15:00,0.576
03/05/2024 16:30:00,0.577
03/05/2024 16:45:00,0.578
03/05/2024 17:00:00,0.578
03/05/2024 17:15:00,0.578
03/05/2024 17:30:00,0.578
03/05/2024 17:45:00,0.578
03/05/2024 18:00:00,0.577
03/05/2024 18:15:00,0.576
03/05/2024 18:30:00,0.576
03/05/2024 18:45:00,0.576
03/05/2024 19:00:00,0.575
03/05/2024 19:15:00,0.575
03/05/2024 19:30:00,0.575
03/05/2024 19:45:00,0.575
03/05/2024 20:00:00,0.575
03/05/2024 20:15:00,0.574
03/05/2024 20:30:00,0.573
03/05/2024 20:45:00,0.57
03/05/2024 21:00:00,0.569
03/05/2024 21:15:00,0.569
03/05/2024 21:30:00,0.569
03/05/2024 21:45:00,0.57
03/05/2024 22:00:00,0.572
03/05/2024 22:15:00,0.572
03/05/2024 22:30:00,0.572
03/05/2024 22:45:00,0.57
03/05/2024 23:00:00,0.569
03/05/2024 23:15:00,0.569
03/05/2024 23:30:00,0.568
03/05/2024 23:45:00,0.568
04/05/2024 00:00:00,0.568
04/05/2024 00:15:00,0.568
04/05/2024 00:30:00,0.568
04/05/2024 00:45:00,0.568
04/05/2024 01:00:00,0.568
04/05/2024 01:15:00,0.568
04/05/2024 01:30:00,0.568
04/05/2024 01:45:00,0.568
04/05/2024 02:00:00,0.568
04/05/2024 02:15:00,0.568
04/05/2024 02:30:00,0.568
04/05/2024 02:45:00,0.568
04/05/2024 03:00:00,0.568
04/05/2024 03:15:00,0.568
04/05/2024 03:30:00,0.568
04/05/2024 03:45:00,0.567
04/05/2024 04:00:00,0.567
04/05/2024 04:15:00,0.567
04/05/2024 04:30:00,0.567
04/05/2024 04:45:00,0.567
04/05/2024 05:00:00,0.567
04/05/2024 05:15:00,0.567
04/05/2024 05:30:00,0.567
04/05/2024 05:45:00,0.567
04/05/2024 06:00:00,0.567
04/05/2024 06:15:00,0.567
04/05/2024 06:30:00,0.567
04/05/2024 06:45:00,0.567
04/05/2024 07:00:00,0.567
04/05/2024 07:15:00,0.567
04/05/2024 07:30:00,0.567
04/05/2024 07:45:00,0.566
04/05/2024 08:00:00,0.566
04/05/2024 08:15:00,0.566
04/05/2024 08:30:00,0.566
04/05/2024 08:45:00,0.566
04/05/2024 09:00:00,0.566
04/05/2024 09:15:00,0.566
04/05/2024 09:30:00,0.566
04/05/2024 09:45:00,0.566
04/05/2024 10:00:00,0.566
04/05/2024 10:15:00,0.565
04/05/2024 10:30:00,0.565
04/05/2024 10:45:00,0.564
04/05/2024 11:00:00,0.563
04/05/2024 11:15:00,0.563
04/05/2024 11:30:00,0.564
04/05/2024 11:45:00,0.565
04/05/2024 12:00:00,0.565
04/05/2024 12:15:00,0.566
04/05/2024 12:30:00,0.566
04/05/2024 12:45:00,0.566
04/05/2024 13:00:00,0.566
04/05/2024 13:15:00,0.567
04/05/2024 13:30:00,0.567
04/05/2024 13:45:00,0.566
04/05/2024 14:00:00,0.566
04/05/2024 14:15:00,0.566
04/05/2024 14:30:00,0.566
04/05/2024 14:45:00,0.566
04/05/2024 15:00:00,0.566
04/05/2024 15:15:00,0.566
04/05/2024 15:30:00,0.567
04/05/2024 15:45:00,0.569
04/05/2024 16:00:00,0.572
04/05/2024 16:15:00,0.573
04/05/2024 16:30:00,0.574
04/05/2024 16:45:00,0.575
04/05/2024 17:00:00,0.576
04/05/2024 17:15:00,0.576
04/05/2024 17:30:00,0.577
04/05/2024 17:45:00,0.578
04/05/2024 18:00:00,0.579
04/05/2024 18:15:00,0.579
04/05/2024 18:30:00,0.58
04/05/2024 18:45:00,0.58
04/05/2024 19:00:00,0.581
04/05/2024 19:15:00,0.581
04/05/2024 19:30:00,0.581
04/05/2024 19:45:00,0.581
04/05/2024 20:00:00,0.579
04/05/2024 20:15:00,0.579
04/05/2024 20:30:00,0.578
04/05/2024 20:45:00,0.578
04/05/2024 21:00:00,0.578
04/05/2024 21:15:00,0.578
04/05/2024 21:30:00,0.578
04/05/2024 21:45:00,0.578
04/05/2024 22:00:00,0.578
04/05/2024 22:15:00,0.578
04/05/2024 22:30:00,0.578
04/05/2024 22:45:00,0.578
04/05/2024 23:00:00,0.577
04/05/2024 23:15:00,0.576
04/05/2024 23:30:00,0.575
04/05/2024 23:45:00,0.575
05/05/2024 00:00:00,0.574
05/05/2024 00:15:00,0.575
05/05/2024 00:30:00,0.575
05/05/2024 00:45:00,0.575
05/05/2024 01:00:00,0.576
05/05/2024 01:15:00,0.576
05/05/2024 01:30:00,0.576
05/05/2024 01:45:00,0.575
05/05/2024 02:00:00,0.576
05/05/2024 02:15:00,0.576
05/05/2024 02:30:00,0.576
05/05/2024 02:45:00,0.576
05/05/2024 03:00:00,0.576
